Wind_Speed
117 116 114 111 107 103 99 95 93 94 94 91 90 88 88 85 79 77 73 69 72 75 74 74 77 79 76 73 75 76 75 73 70 68 66 64 61 60 60 59 59 58 56 55 55 53 50 47 48 47 46 45 44 43 42 42 41 40 42 43 45 48 47 47 47 47 47 47 46 43 41 42 43 44 46 47 49 50 51 52 54 54 54 55 56 57
119 117 113 108 105 104 102 100 100 99 95 93 91 89 87 84 80 79 76 70 72 76 75 75 77 78 75 74 76 77 76 74 71 68 66 65 64 63 62 60 60 58 56 56 55 52 50 49 49 47 47 46 45 45 43 43 42 42 43 42 44 46 44 45 44 42 41 41 42 42 42 44 47 47 48 48 49 50 52 54 55 56 57 56 55 55
117 115 110 107 107 108 107 105 103 99 95 94 92 89 88 86 84 82 78 73 74 76 75 76 76 76 75 74 75 75 74 73 71 69 68 67 65 63 62 60 59 57 56 56 55 52 51 51 50 48 48 47 46 46 44 44 43 43 43 39 42 47 46 46 46 44 41 39 40 42 44 46 48 50 49 49 49 50 52 53 53 53 52 49 49 49
110 110 109 110 111 111 108 105 103 99 96 94 93 91 90 88 86 83 78 76 76 76 77 75 74 75 74 73 73 73 73 73 72 70 69 68 65 63 62 60 59 57 58 57 55 53 53 52 51 50 49 48 47 46 44 44 44 44 42 38 42 50 49 46 45 44 43 41 43 46 47 48 50 52 53 54 53 52 51 49 49 49 47 45 44 44
103 108 112 114 113 110 107 105 104 101 97 95 94 93 91 90 87 83 81 80 79 79 78 74 74 74 71 69 70 70 71 71 69 68 67 66 63 63 62 60 59 59 59 58 56 56 55 54 52 51 50 49 48 44 42 44 44 42 40 38 43 50 50 47 44 43 43 42 42 45 47 49 50 51 49 47 47 46 47 48 47 46 46 44 42 41
99 106 112 114 111 109 108 107 105 102 98 96 95 93 92 90 87 85 84 83 83 82 78 75 75 73 68 67 67 67 68 68 67 66 65 64 63 63 62 60 60 61 61 59 58 57 56 55 54 53 52 50 48 43 41 43 42 40 38 39 44 49 51 50 46 45 45 43 42 44 47 48 47 43 37 38 42 45 49 51 48 45 45 45 42 38
97 103 109 111 111 111 111 108 105 102 99 97 95 93 92 89 87 87 86 85 85 82 79 77 76 72 67 66 65 64 65 65 65 63 63 63 63 63 61 60 61 62 60 58 58 58 57 56 55 54 52 50 48 45 44 46 44 42 42 43 46 48 49 49 48 48 48 46 46 47 47 48 48 44 42 48 53 55 55 53 51 47 45 43 39 36
95 99 104 108 110 112 111 108 105 103 100 98 95 93 92 90 89 90 87 87 86 84 83 80 77 73 68 65 63 62 62 63 62 61 61 62 61 61 61 61 62 62 59 58 58 58 58 57 56 54 52 50 49 48 49 50 49 48 48 48 50 52 52 51 49 49 49 48 47 48 50 52 53 51 52 56 58 55 52 49 48 45 41 39 38 39
91 95 99 105 109 111 110 108 106 103 101 99 96 94 93 92 92 91 89 88 89 88 85 80 78 74 67 64 63 61 60 59 58 58 58 59 59 59 60 61 62 60 57 57 58 59 58 57 56 54 52 51 51 51 52 52 50 50 49 48 52 56 57 55 51 51 51 51 51 51 53 53 53 53 51 50 50 49 47 45 45 45 43 42 43 43
89 92 97 103 108 110 109 109 108 105 103 101 97 95 95 94 93 92 91 91 91 88 83 80 78 73 67 64 62 58 56 55 55 56 56 56 57 58 59 60 60 57 56 57 58 59 59 57 56 54 52 52 53 53 54 53 50 50 49 48 49 52 55 55 54 55 56 56 56 56 56 54 52 50 47 45 47 49 48 45 44 45 46 47 46 46
86 89 95 101 106 109 110 111 109 106 105 102 98 97 97 96 95 94 93 93 92 86 81 79 77 73 69 64 60 56 53 53 54 54 53 54 55 56 58 59 57 55 55 57 58 58 58 56 55 53 52 54 55 55 55 54 52 51 50 52 53 52 52 53 55 57 57 57 56 56 57 54 48 47 47 47 48 50 48 44 43 46 48 47 47 48
81 86 93 97 102 107 110 111 108 107 106 102 99 99 99 97 96 95 95 94 90 83 80 80 78 75 70 63 60 57 54 54 54 53 53 54 55 57 58 58 56 55 55 56 56 56 56 54 53 52 52 54 55 55 56 55 53 52 51 54 58 57 56 55 56 57 57 56 54 53 54 51 45 44 45 45 46 48 47 44 44 46 47 47 49 51
77 83 89 93 98 104 107 109 109 109 107 103 102 102 101 99 97 96 95 92 86 81 81 81 79 76 69 63 62 59 56 56 55 54 55 56 57 58 58 57 54 53 54 54 53 53 53 52 51 50 50 52 54 54 55 54 53 52 52 55 57 58 58 57 56 56 55 55 54 52 51 48 47 45 45 45 45 46 45 45 46 47 49 51 53 54
75 82 87 91 96 100 105 108 109 109 105 103 103 101 98 97 95 93 91 87 84 83 82 80 78 75 68 65 64 60 57 57 57 57 57 57 58 58 57 54 50 49 50 50 49 50 50 49 49 49 49 50 52 53 53 52 51 50 51 52 54 55 55 55 55 54 54 53 52 51 49 48 48 48 48 48 46 43 42 43 46 48 51 53 54 53
73 78 83 88 91 96 102 106 107 106 103 101 100 97 95 94 91 88 87 85 85 84 81 80 78 73 69 67 64 61 61 61 59 59 59 58 57 56 53 50 46 47 47 47 47 48 49 49 49 48 48 49 50 51 51 50 49 49 48 50 52 54 54 54 54 53 53 52 51 50 50 49 49 49 49 49 47 44 43 44 47 49 50 51 52 51
70 74 80 84 87 93 99 103 106 105 104 103 101 98 96 93 90 90 89 88 88 85 81 79 76 72 70 67 64 63 64 63 62 61 59 58 55 53 50 47 46 46 45 46 48 50 50 49 48 48 47 47 48 50 50 49 48 47 48 50 51 52 52 53 52 51 52 52 51 51 51 51 50 49 49 49 47 45 46 47 48 49 50 51 52 52
68 73 79 84 87 92 97 102 104 104 104 104 102 99 96 93 92 91 90 88 87 83 80 77 74 71 70 66 64 66 66 64 63 61 59 58 56 53 50 49 47 44 44 47 50 51 49 48 47 46 46 47 48 49 49 48 47 46 48 50 50 50 51 51 50 50 50 51 51 51 51 51 50 50 50 48 46 46 47 48 49 50 52 53 53 50
66 72 77 81 85 90 96 100 103 104 105 103 100 96 94 93 91 89 88 86 84 81 78 76 73 71 70 67 67 69 67 65 64 62 61 59 56 54 53 51 48 45 46 49 50 49 47 46 45 45 46 46 46 47 48 47 46 46 48 49 49 49 50 49 49 49 50 50 50 50 50 50 49 49 48 45 43 44 46 48 50 52 54 53 51 50
65 70 75 80 84 89 94 98 102 104 104 102 100 98 97 93 89 87 87 84 83 82 78 76 74 72 70 68 68 69 67 65 64 63 62 60 57 56 55 53 49 47 47 49 50 48 47 46 45 45 45 44 44 45 46 46 45 45 47 48 48 49 49 48 48 49 49 49 49 49 49 48 48 47 45 43 42 44 46 48 50 52 53 52 51 51
63 68 74 79 84 89 93 97 100 102 101 101 100 98 95 91 89 88 86 83 82 81 77 76 74 72 69 67 67 68 67 65 65 63 61 60 59 58 57 54 51 49 49 50 50 49 49 47 45 44 43 43 43 44 44 44 44 44 45 46 46 47 47 46 47 48 48 48 48 47 47 47 48 46 44 43 44 46 48 50 51 53 53 53 52 51
62 67 72 77 82 84 88 93 96 98 98 98 96 92 90 88 88 86 84 82 81 78 76 75 72 70 69 67 66 67 67 65 63 62 61 60 59 59 57 55 53 52 53 52 51 51 50 47 44 43 44 43 43 43 43 43 43 43 43 43 43 44 45 44 45 45 45 46 45 45 45 45 46 46 45 45 46 47 50 52 53 53 53 53 53 51
60 65 69 73 76 79 84 89 93 95 96 94 91 89 88 86 84 82 80 79 78 76 74 72 70 69 69 67 66 67 66 64 62 61 61 60 59 59 58 55 54 54 54 54 53 52 50 47 45 45 45 44 44 44 43 42 42 42 42 42 41 42 43 43 42 43 43 43 44 44 44 45 45 46 46 47 47 49 52 53 54 54 54 54 52 51
59 63 67 71 75 79 83 87 90 93 94 93 91 90 87 84 82 79 78 77 76 75 73 71 69 69 68 67 67 67 66 63 62 61 61 60 59 58 57 56 55 55 54 54 54 52 50 47 45 46 46 46 45 44 43 42 42 42 42 41 41 41 41 41 40 40 41 41 42 43 44 46 47 48 49 49 50 51 53 54 55 55 54 53 51 51
58 61 65 71 75 79 83 86 89 92 93 92 90 87 84 81 80 79 80 80 77 74 72 71 70 68 67 67 67 66 65 63 61 61 60 60 59 57 56 55 54 54 54 54 54 52 50 47 46 47 47 47 46 44 43 43 42 42 42 42 41 40 40 39 38 38 38 39 40 41 43 44 46 48 50 51 53 53 55 56 56 55 54 52 51 52
59 62 66 70 74 77 81 84 87 88 87 87 85 84 82 82 82 81 80 77 74 73 73 72 71 69 68 67 67 66 64 62 60 59 59 58 57 56 55 54 53 53 53 54 53 52 50 47 47 48 48 47 46 44 43 43 42 42 42 42 42 40 39 39 38 37 37 38 39 40 41 42 44 46 48 50 52 54 55 55 55 54 53 53 53 53
57 61 66 69 71 73 75 77 78 80 82 83 83 83 83 83 82 80 76 71 70 71 72 71 71 70 69 69 68 66 64 61 59 58 57 57 56 55 54 53 52 52 53 53 53 51 50 49 49 49 49 47 45 44 44 43 43 43 43 42 42 40 39 39 38 37 36 37 37 38 39 41 42 44 46 47 49 51 52 53 53 54 53 53 53 53
55 59 62 65 69 72 73 74 76 79 81 82 82 81 81 80 79 77 75 72 71 70 69 69 70 70 69 69 68 66 63 61 60 58 57 57 56 54 53 52 52 53 53 52 51 50 51 51 50 50 49 48 46 45 44 44 43 43 43 43 42 40 40 39 38 37 36 36 36 37 37 38 40 42 43 45 46 48 49 50 51 52 52 52 52 53
53 57 60 63 67 69 71 73 76 77 78 79 79 78 76 75 75 73 72 71 71 69 67 68 69 69 68 68 68 65 63 61 60 59 58 57 56 54 52 51 52 52 51 50 50 51 51 51 51 50 49 48 46 46 45 45 44 43 43 43 42 41 40 39 38 37 36 36 36 36 36 37 38 40 41 43 44 46 47 48 49 50 50 50 50 51
51 55 59 63 66 67 69 72 75 76 76 76 76 75 74 72 71 70 69 69 69 68 68 70 69 68 67 67 66 64 62 61 60 59 58 57 55 53 51 51 50 50 49 49 50 51 51 51 51 51 49 48 47 46 46 45 44 43 43 43 42 42 40 39 38 37 37 36 36 36 36 36 37 38 39 40 42 43 44 45 46 46 47 47 47 47
50 54 57 60 63 66 68 71 72 73 74 73 73 72 72 71 70 68 68 68 67 67 69 69 68 67 66 66 64 62 61 61 60 59 57 56 55 53 52 51 50 48 48 49 49 50 50 51 50 49 48 47 47 46 46 45 44 43 43 42 42 41 40 39 38 37 36 36 36 36 36 36 36 36 37 38 39 40 41 42 43 43 43 43 44 44
49 52 55 59 62 65 68 69 69 69 70 70 70 70 70 70 69 69 68 67 66 65 65 65 65 66 66 64 63 62 61 60 60 59 57 56 55 54 53 51 49 48 48 48 48 48 48 48 48 48 48 47 47 46 45 45 43 42 42 42 41 40 39 38 37 36 36 35 35 35 35 35 35 35 36 36 37 38 39 39 40 40 41 41 42 42
49 51 54 58 62 64 66 67 68 68 68 69 68 67 67 67 67 67 66 66 64 64 64 64 65 65 65 64 63 62 61 60 60 60 59 57 56 54 53 50 48 47 47 47 47 47 45 45 46 48 48 47 46 45 45 44 42 41 41 41 40 39 39 38 38 37 36 35 35 34 34 35 34 34 35 35 35 36 37 39 39 39 39 40 40 40
49 52 55 58 61 64 66 67 68 68 67 65 64 64 64 65 65 65 65 64 63 63 63 63 64 65 65 64 63 62 61 61 62 61 60 58 56 55 53 50 49 48 48 47 47 45 44 44 46 47 47 47 45 45 44 43 42 41 40 40 40 40 39 39 38 37 36 35 34 34 35 35 34 33 32 31 32 34 36 38 38 37 37 37 37 37
49 52 55 58 62 64 66 67 67 65 63 62 63 64 64 65 65 65 64 63 62 62 62 62 64 65 64 63 62 60 60 61 61 61 60 59 57 56 54 51 49 48 48 47 46 45 44 45 46 46 46 46 45 45 44 43 42 41 41 40 40 40 40 40 39 38 37 36 35 35 35 34 33 32 30 28 29 31 33 35 37 37 35 34 35 36
49 52 55 58 62 64 65 65 64 62 61 62 64 64 64 65 65 66 65 65 63 62 61 62 64 64 62 61 60 59 58 60 60 60 59 59 58 57 54 52 50 49 48 48 47 47 47 46 45 45 45 45 45 44 44 43 42 41 41 41 41 41 41 40 40 39 38 37 36 35 34 34 34 33 32 30 29 30 32 35 38 39 37 36 37 39
49 52 54 58 61 63 63 63 62 62 63 63 62 62 62 63 63 63 63 62 62 61 61 62 63 62 61 59 58 58 58 59 59 59 59 60 59 56 54 52 51 50 49 48 49 49 48 46 45 45 45 45 45 45 44 43 42 42 41 42 41 41 41 41 41 40 39 38 36 35 35 35 35 34 31 29 28 30 33 36 39 40 39 40 42 44
49 52 54 57 59 61 62 63 63 64 63 62 61 61 61 61 62 62 61 61 61 61 61 62 63 61 60 59 58 58 58 58 58 59 60 60 58 56 54 53 52 51 49 49 49 49 48 47 46 46 46 46 46 45 44 43 42 41 41 42 42 41 41 41 41 41 40 38 37 36 36 36 36 34 31 29 30 31 34 38 41 41 42 43 45 48
49 51 53 56 58 60 62 64 64 64 63 62 62 61 61 62 62 63 63 62 61 61 61 62 62 61 60 60 59 58 58 58 58 59 61 60 59 57 55 55 54 52 51 50 50 49 49 48 47 46 45 44 44 43 42 41 41 41 41 41 41 41 41 41 41 41 40 39 38 37 36 36 36 34 32 31 31 31 33 39 42 42 43 45 48 51
46 48 51 54 57 59 61 63 64 64 63 63 63 62 62 63 63 63 62 60 60 60 61 61 61 61 61 61 60 59 59 58 58 59 61 60 58 57 57 56 55 53 52 51 50 49 48 47 46 45 44 44 43 42 41 41 41 41 41 42 41 41 42 42 42 41 41 40 39 38 37 37 36 36 35 34 33 31 31 36 41 43 46 48 50 53
43 46 49 52 55 58 60 62 63 64 64 64 63 63 63 63 62 61 59 58 58 60 60 61 61 61 62 61 60 59 59 59 58 58 58 59 58 58 58 57 55 54 52 51 50 49 48 47 46 46 45 44 44 43 42 42 42 42 43 43 43 43 43 42 42 42 41 40 39 39 38 38 38 37 37 36 34 31 31 36 42 44 46 48 50 54
43 46 48 51 53 56 58 61 63 64 64 64 64 64 64 62 59 57 57 58 59 59 60 61 61 61 61 61 60 60 59 58 57 56 57 59 59 59 59 57 56 54 52 51 49 48 48 47 46 45 45 44 44 44 43 43 43 44 44 45 45 45 44 43 43 42 41 41 40 40 40 40 39 39 39 38 37 34 34 37 41 43 43 46 50 53
42 45 48 50 52 54 56 58 60 61 62 63 63 63 61 59 57 56 57 58 58 59 60 60 61 61 61 61 60 60 58 56 56 57 59 60 59 59 60 59 57 55 52 50 49 48 47 46 46 46 45 45 45 45 45 44 44 44 45 46 45 44 43 43 43 42 42 41 41 41 41 41 41 40 39 39 38 37 36 37 39 42 44 48 52 54
42 44 47 49 51 52 54 55 56 57 58 59 59 59 58 57 56 56 56 57 58 58 59 60 61 61 61 60 60 59 57 56 58 60 60 61 60 61 61 59 57 55 53 50 49 47 46 46 47 47 47 46 46 46 45 45 45 45 45 45 44 43 43 43 43 42 42 42 42 42 43 42 42 41 40 39 39 39 39 39 39 41 44 48 51 54
40 42 44 46 48 50 52 52 53 54 54 54 56 56 55 56 56 56 56 57 57 57 58 59 60 61 60 60 59 58 57 58 59 60 61 62 62 62 61 59 56 54 52 49 48 47 47 47 47 47 47 47 47 47 47 46 45 45 44 44 43 43 43 44 43 43 43 44 44 43 43 43 43 42 41 40 39 40 40 40 40 42 44 46 48 50
37 40 42 44 46 49 50 51 52 51 50 50 52 53 53 54 55 55 56 56 56 57 57 58 59 59 59 59 59 59 59 59 60 62 63 63 63 63 62 59 56 54 51 49 48 47 47 47 48 48 48 48 48 47 47 47 46 46 45 45 45 44 44 44 44 44 44 44 44 44 44 44 44 43 42 41 40 41 41 42 42 43 44 45 46 48
33 37 40 41 43 46 48 49 50 49 47 47 49 51 52 53 54 54 55 56 56 56 56 57 58 58 58 59 59 60 60 60 61 63 63 63 63 63 61 58 55 53 51 49 47 47 47 47 48 49 49 49 48 48 48 47 47 47 47 47 46 46 46 46 45 45 45 45 44 44 45 45 45 44 43 42 42 42 43 43 43 44 45 45 46 48
30 34 38 40 42 43 44 46 48 48 48 47 47 49 51 52 54 54 55 55 56 56 56 57 57 58 58 58 59 60 60 60 62 63 63 63 63 62 60 57 55 53 51 49 47 47 47 47 48 49 49 49 49 49 49 49 49 49 49 49 48 48 48 47 47 46 46 46 45 45 46 46 46 45 44 44 43 44 44 45 45 45 46 46 48 49
30 33 36 40 43 44 43 43 45 49 51 51 50 49 49 51 54 55 55 55 56 56 56 57 57 57 58 59 59 60 60 61 62 63 63 63 62 61 60 57 55 53 51 49 48 47 48 48 48 49 50 50 49 49 49 50 50 50 50 50 50 50 50 49 48 48 47 47 46 47 47 47 47 46 45 45 45 45 46 47 47 47 47 48 49 51
30 32 36 39 42 44 45 43 43 48 52 52 51 51 50 51 53 55 54 55 56 57 57 57 57 57 58 58 59 59 60 61 61 62 62 62 61 60 59 57 55 53 51 50 49 49 49 49 49 49 50 50 50 50 50 49 50 50 50 50 51 51 51 50 50 49 48 48 48 48 48 48 48 47 46 45 46 47 48 49 49 48 49 50 51 52
29 31 35 38 40 43 45 44 44 47 49 49 50 51 52 53 54 54 52 52 55 58 58 57 57 57 57 58 58 59 60 60 60 61 61 61 60 60 58 56 54 53 52 51 51 51 50 50 50 50 50 51 51 51 51 50 50 49 49 50 51 51 51 51 50 50 49 49 49 48 49 49 49 48 47 47 47 48 49 50 51 50 51 52 53 54
28 30 32 35 38 41 43 43 44 47 49 49 50 52 53 54 55 56 55 54 56 58 59 58 58 58 58 58 58 58 59 60 60 60 60 60 59 59 58 57 55 54 53 53 53 53 52 52 51 51 51 51 51 52 52 52 51 51 51 51 51 51 51 50 50 50 50 50 50 49 49 49 49 49 49 49 50 50 51 52 52 53 53 53 54 55
Wind_Direction
226 226 225 225 224 224 224 223 224 224 223 224 224 223 224 224 224 226 224 223 229 229 228 229 230 231 229 228 231 234 236 237 237 239 240 240 240 239 239 240 242 243 244 246 247 248 249 250 250 250 251 252 253 254 256 258 261 264 265 267 270 270 270 272 273 274 276 276 276 277 274 274 278 279 281 282 282 283 283 283 286 290 292 293 293 294
225 224 224 223 223 223 222 221 221 222 222 222 223 223 224 224 223 225 223 220 226 228 226 227 229 229 229 228 230 232 235 236 237 238 239 239 239 239 239 240 241 243 244 246 247 249 249 249 250 251 251 252 253 255 257 259 261 263 265 269 271 269 268 269 270 273 275 276 278 278 275 275 277 278 282 283 281 282 283 285 289 292 294 295 295 293
223 223 222 222 222 222 221 220 220 221 221 221 221 222 223 223 222 223 223 220 224 228 227 226 228 229 228 227 229 232 234 235 236 237 239 240 240 241 242 242 243 244 246 247 248 249 249 249 250 250 251 252 253 255 257 259 261 262 265 268 268 265 264 265 267 271 272 271 274 276 276 277 278 278 281 281 280 282 284 287 292 295 297 298 296 293
222 221 221 221 221 221 220 220 220 220 219 220 220 221 221 222 221 221 222 221 223 227 228 227 228 229 228 227 229 231 233 235 236 237 239 241 242 243 244 245 246 247 247 248 249 249 249 249 249 250 251 251 253 255 258 260 261 262 264 264 263 264 265 264 265 268 269 270 272 273 275 276 276 278 281 283 284 285 286 291 297 299 300 299 295 292
221 220 220 220 220 220 219 219 219 219 218 219 219 220 220 221 221 220 220 221 222 225 228 227 227 228 228 228 229 230 232 234 236 237 239 241 243 244 245 245 246 246 247 247 248 248 248 249 249 249 250 251 253 256 258 259 260 260 261 258 256 259 264 263 263 266 269 272 272 272 275 276 277 280 282 285 285 286 289 295 301 300 296 294 292 291
219 218 218 218 218 219 219 219 219 218 217 218 219 219 220 220 221 220 220 220 221 223 226 227 228 227 227 228 229 230 232 234 235 236 238 239 240 242 243 244 244 245 246 247 248 249 249 249 249 249 250 251 253 253 254 255 256 253 250 250 251 255 259 260 261 264 268 270 271 274 275 275 281 283 279 281 284 286 291 295 299 297 290 288 289 289
217 217 217 217 216 217 218 218 218 218 217 218 218 219 219 219 220 221 220 221 221 222 224 226 227 227 226 227 228 229 231 234 235 235 236 238 239 240 241 242 243 244 245 246 248 248 249 249 249 249 250 251 252 250 248 249 249 246 245 247 250 253 256 258 261 263 265 268 270 272 271 272 279 279 275 282 286 288 292 292 294 291 284 282 285 288
216 216 215 215 215 215 216 216 217 217 216 217 217 218 219 218 219 220 220 220 221 221 222 224 226 226 224 226 227 228 230 232 234 235 236 238 239 240 241 241 242 243 244 245 246 247 248 248 248 249 250 250 250 248 245 245 246 247 248 248 249 253 256 259 261 262 264 266 265 267 270 274 279 279 279 284 287 289 291 290 287 284 278 279 286 291
215 215 214 214 214 214 215 215 216 216 216 216 216 217 218 217 218 219 219 220 221 221 221 223 226 225 224 225 227 227 229 231 233 235 236 237 238 239 240 240 241 242 243 243 245 246 247 248 248 249 250 249 249 247 246 245 246 247 248 250 251 252 254 256 258 260 261 262 263 267 272 276 279 280 281 283 284 286 288 286 282 277 276 281 287 293
214 212 212 213 213 213 214 214 215 215 215 215 215 216 217 217 217 218 219 220 221 220 220 222 225 226 224 225 227 227 229 232 234 235 236 236 237 238 239 239 241 242 242 243 244 245 246 247 248 249 249 249 248 248 247 246 246 246 247 249 250 251 252 253 256 259 261 263 266 268 271 274 275 275 276 278 280 282 283 282 279 275 277 282 286 290
212 210 210 211 211 211 212 213 214 214 214 214 213 215 216 216 217 217 218 220 221 220 220 222 224 225 224 224 226 227 228 231 233 235 236 237 237 238 239 240 240 240 241 242 243 245 246 247 248 249 249 249 249 249 248 247 247 246 247 248 250 252 254 254 255 259 262 265 267 268 269 271 273 273 274 276 277 279 279 276 274 274 277 281 284 287
212 209 209 210 210 210 210 212 213 214 214 213 213 214 216 216 216 216 218 219 220 219 220 222 223 224 224 223 225 225 226 228 231 232 234 235 235 236 237 238 238 239 240 241 243 244 246 247 248 248 248 249 250 250 250 249 249 248 248 249 250 253 255 256 257 259 261 263 265 266 267 268 269 270 272 274 275 277 276 272 272 273 276 280 284 285
210 208 208 208 208 209 209 210 212 213 213 213 213 214 215 215 215 216 217 219 219 219 220 221 222 224 223 222 224 224 225 228 229 231 233 234 234 235 236 237 237 238 240 242 243 245 246 247 247 248 248 249 250 250 251 251 250 249 249 249 252 253 255 257 258 258 259 260 263 264 265 265 266 267 267 269 274 277 276 273 273 274 277 281 283 284
208 207 207 207 207 207 208 209 211 213 213 213 214 214 215 216 216 217 218 219 219 219 220 221 222 223 222 221 224 224 225 228 229 231 232 234 235 236 237 239 239 240 242 244 245 246 246 246 246 246 246 247 249 250 251 251 251 250 250 251 253 254 255 256 258 259 259 260 261 262 263 265 266 266 266 267 270 274 276 276 276 276 278 279 280 282
208 207 206 207 206 206 207 208 210 212 213 214 215 215 215 217 217 218 218 219 220 219 220 221 221 221 221 221 223 224 225 228 230 231 233 234 236 238 240 241 241 242 243 244 245 245 244 244 244 244 245 246 248 250 251 251 251 251 250 250 252 254 255 256 257 259 260 260 260 261 264 267 267 267 267 266 268 270 272 275 276 276 277 277 278 282
206 205 205 205 205 205 206 208 209 211 212 213 214 214 214 215 215 216 217 217 218 219 219 221 221 221 221 222 222 224 226 228 230 232 234 236 238 240 241 241 241 241 242 243 242 242 242 242 243 245 245 246 248 250 251 252 252 252 251 250 251 253 254 255 256 257 257 258 259 261 264 265 265 265 265 266 269 270 270 271 273 274 274 275 278 283
203 203 203 204 203 204 205 207 208 210 211 212 212 213 213 214 214 215 215 216 217 218 218 220 220 220 221 221 222 224 226 228 230 232 234 236 237 239 240 240 239 240 241 241 241 242 243 244 245 246 247 247 248 250 252 252 252 252 251 251 252 253 253 254 254 255 255 256 256 259 261 262 263 263 263 265 268 268 267 269 270 270 272 274 279 285
202 201 202 202 202 203 204 206 207 209 211 212 212 212 213 214 214 215 215 216 216 217 217 218 218 218 219 219 220 224 225 227 230 232 234 236 237 238 239 239 239 239 239 240 242 243 244 245 245 246 247 247 248 250 252 252 252 252 252 252 253 253 253 254 255 255 256 256 256 257 259 260 261 261 262 264 267 267 267 268 268 269 271 274 279 285
200 199 200 200 201 202 203 205 206 208 209 211 211 211 211 212 213 215 216 215 216 216 216 217 218 218 218 218 220 224 225 226 229 231 233 235 236 238 238 238 237 237 239 241 242 242 243 243 244 245 246 248 249 250 251 252 252 252 252 253 253 253 254 254 255 256 256 257 257 258 258 259 259 260 261 263 264 266 267 268 268 268 270 274 279 284
198 198 199 199 200 201 202 203 205 207 208 210 210 211 211 211 211 213 214 214 215 216 215 217 218 217 218 218 220 224 225 226 228 230 232 234 235 236 237 237 236 236 237 239 240 240 241 242 243 244 246 247 248 249 250 251 251 252 252 253 253 255 255 255 255 256 256 257 258 258 258 257 257 258 260 261 263 264 266 267 267 267 270 274 279 283
196 197 198 199 200 201 202 203 204 206 208 210 210 210 211 211 212 213 213 213 214 214 215 216 218 217 217 218 220 223 225 226 228 230 232 233 234 236 236 236 235 235 236 238 239 240 241 242 243 243 244 246 247 248 249 250 251 252 253 253 254 256 256 256 256 256 256 257 257 257 256 255 255 256 258 259 260 262 264 265 265 266 270 275 279 282
194 196 197 198 200 201 201 203 204 205 207 209 210 210 211 212 213 213 213 213 214 214 214 216 217 217 217 217 219 222 224 225 227 228 231 232 234 235 236 236 235 236 237 238 240 242 243 243 243 243 244 245 245 246 248 249 251 252 253 254 255 256 258 258 258 258 258 257 256 255 253 253 254 255 255 257 258 259 261 263 263 266 271 277 280 281
193 195 196 196 198 199 201 202 203 204 205 207 208 209 209 210 211 212 212 213 213 213 213 214 216 217 217 217 219 222 224 225 226 227 230 232 233 234 236 236 236 237 239 240 242 243 244 243 243 244 244 244 245 246 247 248 250 252 254 255 256 257 258 259 260 260 260 259 258 256 255 254 255 255 256 257 257 257 259 261 264 268 274 278 280 281
191 193 195 195 196 198 199 201 202 204 205 206 206 207 208 208 209 210 211 211 211 211 212 213 215 216 216 218 219 222 224 225 225 227 229 232 234 235 236 237 237 238 239 240 241 242 243 242 242 243 243 243 244 245 247 248 250 252 254 256 257 258 259 260 261 261 262 261 260 259 258 257 257 257 258 259 260 261 262 264 268 273 277 279 280 280
190 191 193 195 196 197 199 200 201 203 204 205 206 206 206 207 208 209 210 211 210 211 211 213 214 215 215 217 219 222 224 225 226 228 231 233 235 236 237 237 237 238 239 240 240 241 241 240 240 241 242 243 244 246 247 248 250 252 254 256 257 258 260 261 262 263 263 263 263 262 262 261 260 260 260 261 263 264 266 269 271 274 276 278 279 280
189 191 192 193 195 197 199 201 201 202 203 204 205 205 205 206 207 207 207 208 210 211 211 212 214 215 215 216 218 220 222 224 226 228 231 233 235 235 236 236 236 237 238 239 239 240 240 239 239 240 241 242 243 245 246 247 248 250 253 255 256 258 260 261 263 263 264 265 265 265 265 265 264 264 264 264 265 267 269 270 272 274 276 277 279 280
189 191 192 192 193 196 198 199 200 201 202 204 205 205 206 206 207 207 206 205 207 209 211 212 214 215 215 216 217 218 221 223 225 227 229 231 232 233 233 233 234 236 237 238 239 239 239 238 238 239 240 242 242 243 245 246 247 249 251 254 256 258 259 261 262 263 264 266 266 267 267 267 266 266 266 266 267 268 270 271 273 275 276 278 280 281
189 190 190 191 193 195 196 197 199 201 202 203 204 205 205 206 207 207 207 207 207 207 209 212 215 216 216 217 217 218 220 223 225 226 228 229 230 231 231 232 234 235 237 238 238 238 238 238 238 238 240 241 241 242 243 245 246 248 250 253 255 257 258 260 262 263 265 266 267 268 268 268 267 267 267 268 269 270 272 273 275 277 278 280 281 282
189 190 190 191 192 195 195 195 197 199 201 202 203 203 203 205 206 207 207 208 208 208 208 211 213 215 216 217 218 218 220 223 226 227 228 229 230 229 230 232 234 236 237 237 237 238 238 238 238 239 240 240 241 242 243 244 246 248 250 252 254 256 258 261 263 264 266 267 268 269 269 270 270 270 271 271 272 273 274 276 277 279 280 281 282 283
189 190 191 191 192 193 194 196 197 198 200 201 202 202 202 203 204 206 207 209 209 210 211 212 213 215 216 217 218 218 219 223 226 227 228 229 229 229 230 231 233 235 237 238 238 239 240 240 242 242 241 241 241 243 244 245 246 248 250 252 254 257 259 262 264 265 266 267 268 269 270 271 272 273 274 274 275 276 277 278 279 280 280 281 282 284
189 190 190 191 192 193 193 195 197 198 199 200 201 201 202 202 203 205 207 208 209 210 212 213 215 216 216 216 217 217 219 222 226 227 228 227 227 228 229 231 233 235 237 238 239 240 242 243 244 244 242 241 242 243 244 245 247 248 250 253 255 258 260 262 264 265 266 267 269 270 271 273 274 275 275 276 277 278 278 279 279 280 281 283 284 285
187 189 190 191 191 192 193 194 196 198 199 200 200 200 201 202 203 205 206 207 208 209 211 213 215 217 217 216 216 216 217 221 224 225 226 225 225 227 229 231 233 236 238 239 240 242 243 244 244 244 243 242 242 243 245 246 248 249 251 254 256 259 261 262 263 265 266 268 270 271 273 273 274 275 277 279 281 281 280 280 280 282 284 285 286 288
186 188 190 191 191 192 193 194 196 198 199 199 199 200 201 202 204 205 207 208 208 209 210 212 215 217 217 217 216 215 217 220 222 223 224 224 225 227 229 231 234 237 240 241 242 243 244 245 245 245 244 244 243 243 245 246 248 249 251 253 256 258 261 262 264 265 267 269 270 272 273 274 276 278 280 282 282 282 281 282 283 285 286 287 289 291
185 187 189 190 192 192 193 195 196 197 198 198 199 200 201 202 204 205 206 207 209 210 210 212 215 216 216 217 216 215 217 220 222 223 224 224 226 227 229 231 235 238 240 242 243 244 244 244 244 245 245 245 243 243 244 245 246 248 251 254 256 259 261 263 265 266 267 268 270 272 274 276 277 277 277 275 271 270 272 275 280 283 286 290 293 293
185 187 189 190 192 193 194 196 196 196 198 199 200 200 201 202 204 206 206 206 207 208 210 212 215 215 215 216 216 216 218 221 222 223 224 225 227 229 230 233 236 238 240 242 243 244 243 244 245 246 246 246 246 245 244 244 245 247 250 253 256 259 261 264 265 267 269 270 271 273 275 276 275 276 279 279 269 260 259 263 269 276 283 289 291 290
186 188 189 191 192 194 195 195 196 198 199 201 201 201 203 204 206 208 209 208 208 208 210 213 215 214 214 214 215 216 218 220 222 223 225 227 228 230 231 234 236 239 241 243 244 245 245 245 245 245 245 246 246 245 244 244 244 246 249 253 256 260 262 264 266 268 270 272 273 274 275 276 277 279 284 284 272 260 257 259 262 268 275 281 283 284
187 188 190 191 193 194 195 195 197 199 201 201 202 203 204 206 207 208 209 210 210 209 210 213 215 214 213 213 214 216 218 220 222 224 226 228 230 231 232 234 237 240 242 244 245 246 246 246 245 245 245 245 246 247 247 247 247 248 250 253 257 261 263 265 266 268 271 272 274 275 276 278 280 282 282 278 271 263 258 259 261 265 268 273 277 280
188 189 189 191 193 194 195 196 198 200 201 202 202 203 205 207 208 209 209 209 209 209 210 214 214 213 212 212 213 215 217 219 222 225 227 228 230 231 232 233 236 238 241 243 245 246 246 247 247 247 246 247 248 249 250 250 250 250 251 254 257 260 262 264 266 268 270 272 273 275 277 279 280 281 279 274 271 266 259 256 260 264 266 269 273 278
190 190 190 191 193 194 196 198 199 201 202 203 203 204 206 208 209 210 210 210 209 209 210 213 214 212 211 211 212 214 216 218 221 225 228 229 231 232 232 233 236 239 242 244 245 246 247 247 247 247 246 246 247 247 248 249 249 250 251 254 257 259 261 262 264 266 268 270 272 274 276 277 278 278 276 273 272 270 261 255 258 262 264 267 271 276
191 192 192 192 194 195 196 198 200 202 203 204 205 206 208 209 210 210 210 210 210 210 210 212 213 211 211 212 213 214 216 218 220 225 228 231 232 233 233 234 237 240 242 244 246 247 247 247 247 246 246 246 246 247 247 248 249 250 252 254 256 258 260 261 263 264 266 268 271 273 274 275 275 275 275 275 273 269 258 252 253 259 263 268 272 274
191 192 193 193 195 196 198 200 201 203 204 205 206 207 209 210 210 210 210 210 210 210 210 211 212 211 211 212 213 215 217 218 221 224 228 231 232 232 232 234 237 240 242 244 245 247 247 247 247 247 246 246 246 247 247 248 249 250 252 254 256 258 260 261 262 264 265 267 269 271 272 273 273 274 275 275 274 270 262 255 254 257 261 264 267 270
192 193 194 194 195 197 200 202 203 204 205 207 208 209 210 210 210 210 210 209 209 209 210 210 211 211 212 212 214 217 218 220 222 225 228 230 231 232 233 235 238 241 243 245 246 247 248 248 247 247 246 246 247 247 248 248 249 250 251 253 255 257 259 260 261 262 264 266 267 269 270 271 273 274 275 275 274 272 269 264 260 258 258 258 262 266
194 195 196 195 195 197 200 203 205 206 207 208 209 210 210 210 209 209 208 207 207 208 208 209 211 212 212 213 215 217 219 221 223 226 228 230 231 232 234 236 239 241 243 245 247 248 249 249 249 248 248 249 249 250 250 251 251 251 252 253 255 256 256 257 258 260 262 263 265 267 269 271 272 273 274 274 274 274 273 271 269 266 263 262 264 266
195 196 198 198 196 196 198 202 205 206 207 207 208 208 208 208 207 206 205 205 205 207 208 209 211 213 213 214 215 216 218 221 224 227 229 230 231 233 235 237 240 242 244 246 247 249 250 251 251 251 251 251 252 252 253 253 253 253 253 253 254 254 254 256 257 258 260 261 263 266 268 270 271 272 273 274 274 275 275 275 274 271 270 269 269 270
197 197 198 200 199 197 197 200 203 204 205 206 206 206 206 206 204 204 204 204 205 207 208 210 211 213 214 215 216 217 218 221 224 226 228 230 231 233 235 237 240 242 245 247 249 250 252 252 253 252 252 253 254 254 255 255 254 254 254 253 253 254 255 256 257 258 259 261 264 266 268 269 271 272 273 273 274 275 276 276 276 275 275 275 275 275
201 199 199 200 202 201 198 199 201 202 203 204 204 204 205 204 203 203 204 205 206 207 209 211 212 214 215 216 217 218 218 220 223 226 227 229 231 233 235 238 240 243 245 248 250 251 253 253 253 253 254 254 255 255 256 256 255 255 255 254 254 254 255 256 257 258 260 262 264 266 268 269 270 272 272 273 274 275 277 278 279 279 280 280 280 280
203 201 199 199 202 204 202 200 200 200 202 203 204 204 204 204 204 204 205 207 207 208 210 212 213 215 216 217 218 219 219 220 223 225 227 229 231 233 236 238 240 243 246 248 250 252 253 253 254 254 254 255 255 256 257 257 257 256 256 256 255 255 255 255 257 258 260 262 263 265 266 268 270 272 272 273 275 277 278 279 280 281 282 283 283 283
203 203 201 200 201 203 204 204 202 202 203 203 203 203 204 205 205 205 206 208 209 209 211 212 213 215 216 218 220 221 221 221 223 225 227 229 231 234 236 238 241 244 246 248 250 251 252 253 254 255 255 255 256 257 257 258 258 257 257 256 256 255 255 255 256 258 259 261 263 264 266 268 270 272 273 274 276 278 279 280 281 283 283 284 284 284
204 203 203 203 203 202 203 205 206 207 208 208 206 205 205 206 206 206 207 209 210 211 211 212 214 215 217 219 221 222 223 223 224 225 228 230 233 235 238 240 242 245 247 248 250 251 252 253 254 255 255 255 256 256 257 258 258 258 257 257 256 256 256 256 257 258 259 261 263 265 267 269 271 272 274 275 277 278 280 281 282 283 284 284 285 285
206 204 205 205 205 203 204 205 207 209 211 212 211 209 209 209 208 208 208 210 211 212 212 213 214 215 217 219 221 223 225 225 225 226 228 231 234 237 240 242 244 246 248 249 250 252 253 254 255 256 256 256 256 256 256 257 257 257 257 257 257 258 258 258 258 258 259 261 263 265 267 269 271 273 275 276 278 279 280 282 283 284 284 285 285 285
207 205 206 207 207 206 205 206 208 210 212 213 213 213 213 212 211 211 211 212 213 214 214 214 215 216 217 219 221 224 226 227 227 228 229 231 233 236 240 242 244 246 248 249 251 252 253 254 255 256 257 257 257 256 256 256 256 256 257 257 258 259 260 260 259 259 260 262 264 265 267 269 271 274 275 276 277 279 280 281 283 284 285 285 286 286
Height
10481 10488 10500 10515 10534 10552 10564 10575 10581 10581 10588 10597 10604 10611 10613 10621 10632 10636 10644 10653 10651 10653 10660 10665 10668 10671 10681 10689 10688 10688 10690 10697 10704 10710 10715 10721 10727 10731 10733 10736 10738 10742 10747 10750 10752 10756 10762 10765 10766 10769 10771 10772 10773 10774 10776 10777 10779 10780 10779 10778 10776 10773 10774 10774 10775 10776 10776 10776 10776 10777 10776 10774 10773 10772 10771 10770 10769 10769 10769 10768 10768 10767 10766 10765 10763 10762
10463 10473 10493 10514 10532 10541 10547 10555 10557 10564 10579 10588 10594 10604 10609 10617 10626 10626 10635 10646 10642 10643 10652 10656 10657 10663 10674 10681 10681 10682 10686 10693 10700 10706 10710 10714 10719 10723 10728 10732 10734 10740 10744 10745 10748 10753 10758 10759 10761 10764 10766 10767 10768 10770 10772 10774 10776 10776 10775 10776 10771 10766 10768 10769 10769 10770 10771 10771 10772 10771 10771 10770 10768 10767 10765 10764 10763 10763 10763 10763 10763 10762 10761 10759 10757 10756
10448 10467 10493 10511 10517 10520 10528 10538 10545 10559 10572 10578 10587 10596 10601 10609 10615 10618 10628 10638 10636 10636 10643 10647 10651 10658 10667 10672 10675 10679 10684 10689 10695 10700 10704 10708 10714 10720 10724 10729 10732 10737 10740 10740 10744 10749 10753 10754 10756 10759 10760 10763 10764 10766 10769 10769 10771 10771 10772 10775 10767 10759 10761 10763 10763 10765 10766 10767 10768 10766 10765 10764 10762 10761 10759 10758 10758 10759 10759 10759 10759 10757 10756 10754 10752 10750
10445 10470 10488 10493 10496 10505 10520 10532 10541 10553 10562 10570 10579 10585 10592 10600 10605 10614 10623 10629 10632 10632 10634 10641 10647 10652 10659 10666 10671 10676 10680 10683 10690 10696 10700 10705 10712 10717 10721 10726 10730 10734 10734 10736 10740 10744 10746 10749 10752 10754 10755 10758 10759 10762 10766 10764 10765 10766 10769 10773 10763 10751 10753 10758 10760 10761 10762 10764 10763 10762 10760 10758 10757 10755 10754 10752 10753 10754 10755 10755 10754 10752 10751 10750 10748 10747
10442 10461 10467 10471 10484 10502 10514 10524 10532 10542 10554 10563 10570 10577 10585 10592 10599 10609 10614 10619 10624 10623 10626 10637 10641 10645 10656 10664 10669 10673 10676 10680 10687 10693 10698 10703 10709 10712 10716 10722 10726 10727 10728 10731 10735 10737 10740 10743 10746 10748 10750 10753 10755 10760 10761 10757 10759 10762 10764 10766 10757 10747 10748 10753 10756 10757 10758 10759 10759 10757 10755 10753 10752 10750 10748 10748 10748 10749 10750 10750 10749 10748 10747 10746 10744 10743
10431 10441 10448 10461 10480 10495 10503 10513 10523 10535 10549 10556 10563 10572 10578 10586 10595 10601 10605 10609 10613 10616 10624 10631 10634 10643 10654 10659 10664 10670 10673 10677 10683 10689 10695 10699 10703 10706 10711 10716 10719 10720 10722 10726 10729 10731 10734 10737 10740 10742 10745 10748 10752 10757 10755 10749 10752 10756 10757 10757 10751 10746 10747 10748 10751 10753 10754 10755 10754 10753 10751 10749 10748 10745 10744 10743 10743 10744 10745 10745 10746 10745 10743 10742 10740 10740
10417 10426 10438 10453 10469 10481 10490 10503 10516 10528 10541 10548 10557 10566 10572 10582 10590 10593 10599 10601 10605 10615 10621 10623 10629 10640 10648 10653 10659 10666 10669 10673 10678 10685 10690 10693 10696 10701 10705 10710 10711 10713 10717 10721 10723 10725 10728 10730 10734 10736 10740 10745 10748 10751 10748 10742 10745 10749 10749 10750 10747 10746 10745 10745 10747 10749 10750 10751 10750 10749 10747 10747 10746 10742 10740 10738 10737 10739 10740 10741 10741 10741 10740 10738 10737 10736
10405 10416 10429 10442 10457 10469 10480 10496 10510 10521 10532 10541 10551 10558 10565 10576 10579 10582 10591 10594 10600 10608 10610 10616 10625 10633 10642 10649 10655 10661 10665 10668 10674 10681 10685 10688 10692 10696 10700 10703 10704 10707 10713 10716 10717 10719 10721 10724 10728 10732 10736 10740 10741 10742 10740 10737 10741 10743 10744 10745 10743 10742 10742 10742 10744 10746 10746 10747 10746 10744 10743 10743 10742 10739 10737 10735 10733 10734 10735 10736 10737 10737 10736 10734 10733 10732
10398 10409 10423 10435 10447 10460 10475 10491 10501 10511 10522 10531 10541 10550 10557 10564 10567 10574 10584 10586 10589 10595 10604 10614 10620 10628 10641 10647 10651 10657 10662 10666 10673 10677 10679 10683 10687 10690 10693 10695 10697 10703 10708 10710 10711 10713 10715 10718 10723 10727 10732 10734 10734 10733 10732 10734 10737 10739 10740 10741 10739 10737 10737 10739 10741 10741 10741 10740 10740 10739 10737 10737 10737 10735 10734 10733 10731 10731 10732 10733 10733 10733 10732 10730 10729 10728
10386 10400 10413 10423 10436 10452 10469 10480 10488 10501 10511 10520 10533 10542 10547 10553 10560 10567 10574 10577 10579 10589 10605 10614 10617 10628 10639 10643 10648 10656 10662 10667 10670 10671 10674 10678 10681 10683 10685 10688 10693 10700 10703 10703 10705 10707 10709 10713 10717 10722 10726 10727 10725 10726 10727 10729 10732 10734 10737 10736 10732 10731 10733 10736 10737 10735 10735 10735 10735 10734 10732 10732 10732 10730 10731 10731 10728 10728 10729 10730 10730 10730 10728 10726 10725 10725
10376 10391 10402 10412 10427 10443 10456 10467 10480 10494 10502 10512 10526 10532 10536 10544 10551 10558 10565 10568 10573 10589 10606 10612 10616 10625 10633 10640 10649 10656 10661 10664 10664 10666 10670 10673 10676 10677 10679 10683 10689 10694 10696 10697 10699 10701 10704 10708 10712 10717 10720 10719 10718 10719 10721 10724 10727 10730 10732 10729 10726 10727 10730 10732 10732 10730 10730 10730 10730 10728 10726 10727 10729 10727 10727 10727 10725 10724 10725 10727 10727 10726 10724 10723 10722 10721
10373 10385 10393 10405 10419 10432 10444 10458 10475 10485 10491 10505 10518 10521 10525 10535 10542 10550 10556 10559 10572 10594 10605 10607 10612 10619 10628 10641 10646 10651 10655 10656 10658 10662 10664 10666 10668 10670 10673 10677 10683 10688 10690 10691 10694 10697 10699 10703 10707 10711 10714 10713 10711 10713 10714 10717 10722 10725 10727 10724 10722 10724 10726 10728 10727 10726 10726 10727 10725 10723 10722 10724 10725 10724 10723 10723 10722 10721 10722 10723 10723 10722 10721 10719 10718 10717
10371 10381 10390 10402 10413 10425 10439 10454 10467 10472 10482 10498 10505 10508 10517 10527 10535 10543 10549 10560 10580 10596 10597 10600 10607 10615 10628 10639 10641 10646 10650 10651 10654 10657 10657 10659 10661 10663 10667 10672 10679 10683 10685 10688 10691 10693 10695 10699 10702 10706 10708 10707 10705 10706 10708 10711 10716 10719 10720 10718 10718 10719 10721 10722 10722 10721 10722 10723 10721 10719 10719 10720 10720 10720 10720 10719 10719 10719 10719 10719 10718 10718 10717 10715 10714 10713
10366 10374 10384 10393 10404 10419 10433 10446 10455 10464 10480 10492 10497 10507 10518 10526 10536 10545 10555 10570 10582 10587 10590 10597 10604 10613 10626 10633 10635 10642 10646 10646 10649 10650 10650 10653 10655 10659 10664 10670 10677 10681 10682 10685 10687 10689 10691 10693 10696 10699 10702 10701 10700 10700 10702 10705 10710 10713 10713 10712 10712 10713 10715 10716 10716 10716 10718 10718 10717 10716 10716 10716 10715 10715 10716 10716 10716 10716 10715 10714 10714 10714 10713 10711 10710 10708
10362 10371 10381 10390 10403 10417 10429 10441 10453 10466 10482 10491 10499 10512 10521 10528 10541 10552 10560 10569 10574 10580 10588 10593 10600 10612 10622 10627 10633 10639 10640 10640 10643 10644 10646 10648 10652 10657 10663 10670 10676 10678 10679 10682 10682 10683 10684 10687 10690 10693 10696 10697 10695 10695 10696 10700 10704 10707 10708 10707 10708 10709 10710 10711 10711 10712 10713 10713 10712 10712 10712 10712 10712 10711 10712 10712 10713 10713 10712 10711 10710 10710 10708 10707 10706 10704
10359 10371 10380 10390 10403 10414 10426 10438 10448 10460 10471 10480 10490 10501 10511 10523 10535 10541 10548 10555 10562 10573 10583 10589 10599 10610 10616 10624 10631 10632 10633 10635 10638 10640 10643 10647 10651 10656 10662 10667 10670 10672 10675 10676 10675 10675 10678 10682 10686 10689 10691 10692 10692 10691 10691 10695 10699 10702 10703 10702 10703 10705 10705 10706 10707 10708 10708 10708 10708 10708 10708 10708 10708 10708 10708 10708 10709 10709 10707 10706 10706 10705 10704 10702 10701 10700
10356 10366 10374 10383 10396 10408 10420 10431 10441 10454 10464 10470 10480 10495 10508 10517 10524 10530 10539 10549 10558 10570 10581 10587 10597 10605 10612 10621 10625 10624 10628 10631 10633 10637 10641 10644 10649 10653 10657 10661 10664 10668 10670 10668 10667 10669 10674 10679 10682 10684 10686 10687 10687 10686 10687 10690 10695 10697 10697 10696 10699 10701 10700 10701 10703 10703 10703 10704 10705 10705 10705 10705 10704 10704 10704 10705 10706 10704 10703 10702 10701 10700 10699 10698 10697 10696
10352 10361 10370 10381 10393 10403 10413 10423 10436 10447 10455 10465 10481 10496 10504 10510 10519 10528 10537 10547 10557 10568 10577 10584 10591 10599 10607 10614 10616 10617 10622 10626 10629 10633 10636 10640 10645 10649 10652 10655 10660 10663 10662 10661 10662 10666 10671 10675 10677 10679 10680 10681 10683 10682 10683 10686 10690 10692 10691 10691 10693 10694 10694 10696 10698 10698 10699 10700 10701 10702 10702 10701 10700 10700 10701 10702 10701 10699 10699 10698 10697 10696 10694 10693 10692 10692
10349 10357 10367 10378 10388 10397 10407 10419 10429 10437 10447 10461 10475 10484 10491 10504 10519 10527 10534 10545 10555 10564 10574 10580 10586 10594 10601 10607 10610 10613 10618 10622 10625 10628 10632 10636 10641 10643 10645 10650 10654 10657 10656 10656 10658 10662 10666 10669 10671 10674 10675 10677 10678 10678 10679 10681 10684 10686 10685 10686 10687 10687 10689 10692 10693 10693 10694 10695 10696 10697 10697 10696 10695 10695 10696 10697 10696 10695 10694 10694 10692 10691 10689 10688 10688 10688
10348 10356 10364 10373 10382 10390 10401 10412 10422 10433 10445 10456 10465 10476 10490 10503 10512 10518 10530 10543 10551 10560 10571 10575 10581 10590 10598 10603 10607 10609 10613 10618 10620 10623 10628 10631 10634 10636 10639 10644 10649 10650 10649 10649 10652 10657 10660 10664 10667 10670 10671 10672 10674 10674 10675 10676 10678 10680 10680 10681 10682 10682 10684 10687 10687 10688 10689 10690 10690 10691 10691 10691 10690 10690 10691 10691 10691 10690 10689 10689 10688 10686 10685 10684 10684 10683
10347 10355 10363 10371 10380 10390 10400 10411 10422 10434 10445 10454 10467 10484 10496 10503 10509 10518 10530 10540 10548 10558 10567 10571 10579 10588 10593 10598 10603 10604 10608 10612 10616 10620 10622 10625 10628 10630 10634 10639 10643 10643 10642 10644 10648 10652 10656 10661 10664 10666 10666 10668 10669 10670 10670 10672 10674 10674 10675 10676 10678 10678 10679 10681 10682 10683 10684 10684 10685 10685 10686 10686 10686 10686 10686 10686 10685 10685 10684 10684 10683 10681 10680 10680 10679 10678
10347 10355 10363 10373 10383 10393 10403 10412 10421 10432 10444 10456 10472 10484 10493 10502 10512 10521 10531 10540 10547 10556 10563 10570 10577 10582 10588 10594 10597 10598 10601 10606 10611 10614 10616 10619 10623 10625 10629 10634 10636 10636 10638 10641 10645 10648 10653 10657 10660 10661 10662 10663 10664 10665 10666 10668 10669 10669 10670 10672 10674 10674 10674 10676 10678 10678 10679 10679 10679 10680 10681 10681 10681 10681 10681 10681 10680 10679 10679 10678 10678 10677 10676 10675 10674 10673
10347 10355 10363 10373 10383 10392 10401 10410 10420 10430 10440 10451 10464 10475 10486 10499 10510 10520 10529 10536 10543 10552 10560 10566 10571 10577 10585 10589 10591 10592 10596 10601 10605 10608 10610 10614 10617 10620 10625 10629 10630 10632 10635 10638 10641 10645 10649 10653 10655 10656 10657 10658 10660 10661 10663 10664 10665 10665 10666 10667 10669 10670 10670 10671 10673 10673 10674 10674 10674 10675 10676 10676 10677 10677 10676 10676 10675 10674 10674 10673 10673 10672 10671 10670 10669 10667
10347 10355 10363 10371 10379 10388 10397 10406 10416 10424 10434 10446 10459 10473 10487 10498 10507 10513 10518 10525 10536 10547 10555 10561 10566 10573 10580 10583 10585 10588 10591 10595 10599 10602 10605 10609 10613 10617 10621 10624 10626 10628 10631 10634 10637 10640 10644 10649 10651 10650 10651 10653 10655 10657 10659 10660 10661 10661 10661 10662 10664 10665 10665 10667 10668 10668 10669 10669 10669 10669 10670 10671 10672 10671 10672 10671 10670 10669 10669 10668 10667 10667 10666 10665 10664 10662
10346 10354 10362 10370 10378 10386 10393 10402 10412 10425 10439 10452 10464 10475 10485 10491 10496 10502 10511 10524 10537 10544 10549 10554 10560 10567 10573 10576 10580 10583 10586 10591 10595 10598 10602 10606 10610 10613 10617 10619 10621 10623 10625 10628 10631 10635 10639 10643 10644 10644 10646 10648 10651 10654 10655 10656 10657 10657 10657 10658 10659 10660 10661 10662 10663 10664 10664 10664 10664 10664 10665 10666 10666 10666 10666 10666 10665 10664 10663 10662 10662 10661 10660 10659 10658 10657
10348 10354 10361 10371 10381 10391 10400 10410 10421 10433 10443 10452 10460 10469 10476 10482 10490 10500 10513 10526 10535 10539 10545 10550 10555 10561 10566 10569 10573 10577 10581 10585 10590 10594 10598 10602 10605 10609 10611 10613 10615 10617 10619 10622 10626 10630 10634 10637 10638 10639 10641 10644 10647 10649 10650 10652 10653 10653 10653 10653 10654 10656 10657 10658 10659 10660 10659 10659 10660 10660 10660 10661 10661 10661 10661 10660 10659 10659 10658 10657 10656 10655 10655 10654 10653 10652
10351 10358 10365 10374 10383 10390 10400 10411 10422 10430 10438 10446 10457 10466 10475 10484 10493 10502 10511 10520 10527 10533 10541 10547 10550 10555 10560 10563 10568 10573 10576 10580 10585 10590 10593 10596 10599 10603 10605 10607 10609 10611 10614 10618 10622 10625 10627 10630 10633 10634 10637 10639 10642 10644 10645 10647 10648 10649 10649 10649 10650 10652 10653 10653 10655 10655 10656 10656 10656 10656 10656 10656 10656 10656 10655 10655 10654 10653 10652 10651 10650 10650 10649 10649 10648 10647
10354 10361 10369 10377 10383 10390 10399 10410 10420 10429 10437 10447 10456 10467 10477 10486 10494 10503 10512 10518 10523 10530 10538 10542 10545 10550 10555 10559 10564 10569 10573 10576 10580 10584 10588 10591 10594 10598 10600 10602 10604 10606 10610 10614 10616 10618 10621 10625 10627 10630 10632 10635 10637 10639 10640 10642 10643 10644 10645 10646 10647 10648 10649 10650 10650 10651 10652 10652 10652 10652 10652 10652 10651 10651 10650 10650 10649 10648 10647 10646 10645 10645 10644 10643 10642 10641
10358 10364 10370 10377 10384 10393 10402 10410 10417 10426 10435 10445 10454 10465 10475 10485 10494 10503 10510 10515 10521 10528 10531 10533 10538 10545 10550 10555 10561 10567 10570 10572 10575 10580 10584 10587 10590 10593 10595 10597 10600 10603 10606 10608 10610 10613 10616 10619 10622 10625 10629 10631 10632 10634 10635 10637 10639 10640 10640 10642 10642 10643 10645 10646 10646 10646 10647 10647 10647 10647 10647 10647 10647 10646 10646 10645 10644 10643 10642 10641 10640 10639 10639 10638 10636 10635
10361 10367 10373 10380 10387 10395 10403 10411 10418 10426 10435 10444 10454 10464 10474 10482 10491 10499 10505 10512 10519 10524 10527 10531 10537 10542 10546 10553 10559 10564 10566 10568 10571 10576 10580 10583 10587 10589 10590 10592 10595 10598 10601 10603 10606 10608 10611 10614 10618 10622 10625 10627 10627 10629 10631 10633 10634 10635 10636 10637 10638 10639 10640 10641 10641 10642 10642 10642 10642 10642 10642 10642 10642 10642 10641 10640 10639 10638 10637 10636 10635 10634 10633 10632 10630 10629
10363 10370 10377 10384 10390 10397 10404 10413 10421 10429 10438 10445 10454 10462 10471 10480 10487 10494 10501 10508 10515 10520 10526 10532 10536 10538 10543 10550 10555 10558 10562 10564 10567 10570 10575 10579 10582 10583 10585 10587 10590 10593 10596 10598 10601 10604 10608 10612 10615 10617 10619 10621 10623 10624 10626 10628 10630 10631 10632 10633 10634 10635 10636 10636 10636 10637 10637 10637 10637 10637 10637 10637 10637 10637 10637 10636 10635 10634 10632 10631 10629 10628 10627 10626 10624 10623
10365 10372 10379 10385 10392 10399 10406 10414 10422 10429 10435 10443 10453 10462 10471 10479 10486 10492 10498 10504 10511 10517 10523 10527 10530 10534 10539 10545 10549 10553 10556 10558 10561 10565 10569 10572 10575 10577 10579 10583 10586 10589 10591 10594 10598 10602 10605 10608 10609 10610 10613 10616 10619 10620 10621 10623 10625 10627 10628 10628 10629 10630 10630 10630 10631 10632 10632 10633 10633 10633 10632 10632 10632 10633 10632 10632 10631 10629 10627 10625 10624 10623 10622 10620 10619 10618
10367 10373 10380 10387 10393 10399 10406 10413 10419 10425 10433 10445 10455 10463 10471 10477 10483 10489 10495 10502 10508 10513 10518 10523 10526 10529 10533 10539 10543 10547 10550 10552 10556 10559 10563 10568 10571 10573 10575 10578 10582 10584 10587 10591 10594 10598 10601 10602 10603 10605 10608 10611 10614 10616 10617 10619 10621 10622 10623 10623 10624 10624 10624 10625 10626 10627 10628 10628 10628 10628 10627 10627 10628 10628 10629 10629 10627 10625 10623 10620 10618 10618 10617 10616 10615 10614
10368 10374 10380 10387 10393 10399 10406 10411 10418 10428 10439 10448 10453 10459 10466 10473 10479 10485 10492 10498 10503 10509 10515 10518 10518 10521 10528 10534 10539 10543 10546 10549 10552 10556 10560 10564 10566 10568 10571 10575 10578 10581 10583 10586 10589 10592 10594 10596 10598 10600 10603 10605 10609 10611 10613 10614 10616 10617 10618 10619 10619 10619 10619 10619 10620 10621 10622 10623 10623 10623 10623 10623 10623 10623 10624 10625 10625 10623 10620 10617 10614 10613 10613 10612 10611 10609
10370 10375 10381 10387 10393 10400 10406 10414 10424 10433 10440 10443 10448 10455 10462 10468 10474 10480 10485 10490 10496 10503 10509 10511 10512 10518 10526 10530 10534 10540 10543 10546 10549 10553 10557 10558 10560 10564 10568 10572 10574 10576 10578 10581 10583 10585 10588 10590 10594 10596 10598 10601 10603 10606 10608 10610 10611 10612 10613 10614 10613 10614 10614 10614 10615 10616 10617 10617 10618 10618 10618 10617 10617 10618 10619 10621 10621 10619 10616 10612 10610 10609 10609 10608 10607 10605
10371 10376 10382 10388 10394 10401 10409 10418 10426 10431 10434 10440 10448 10456 10462 10467 10473 10479 10485 10490 10496 10500 10504 10506 10509 10515 10522 10526 10531 10536 10539 10543 10546 10550 10552 10553 10556 10560 10564 10567 10569 10571 10574 10576 10577 10580 10583 10586 10589 10592 10594 10595 10597 10599 10602 10604 10606 10608 10609 10609 10609 10609 10609 10609 10610 10610 10611 10612 10612 10613 10612 10611 10611 10613 10615 10615 10614 10612 10610 10608 10606 10606 10605 10605 10603 10601
10372 10377 10383 10389 10395 10403 10410 10417 10422 10427 10433 10441 10448 10454 10460 10466 10472 10477 10482 10487 10492 10497 10501 10502 10505 10513 10519 10523 10527 10531 10536 10540 10543 10545 10547 10548 10551 10556 10560 10562 10564 10567 10569 10570 10572 10575 10578 10580 10583 10586 10588 10590 10592 10594 10597 10599 10602 10604 10605 10605 10605 10605 10604 10605 10605 10605 10606 10607 10607 10607 10607 10606 10606 10608 10610 10609 10608 10607 10607 10605 10603 10603 10602 10601 10599 10597
10372 10377 10383 10389 10396 10402 10408 10413 10419 10425 10432 10439 10445 10451 10456 10461 10466 10470 10474 10479 10485 10491 10495 10497 10502 10510 10515 10518 10522 10527 10532 10536 10538 10539 10541 10543 10547 10552 10555 10557 10559 10562 10563 10565 10567 10570 10573 10576 10579 10582 10584 10587 10589 10591 10593 10595 10597 10599 10600 10600 10600 10600 10600 10600 10601 10601 10601 10601 10601 10602 10602 10601 10601 10602 10604 10604 10603 10603 10603 10601 10599 10599 10598 10596 10595 10593
10374 10379 10384 10389 10395 10401 10407 10413 10419 10424 10430 10435 10441 10447 10451 10456 10460 10465 10471 10478 10483 10488 10491 10493 10498 10505 10509 10513 10518 10522 10527 10532 10534 10534 10535 10539 10543 10546 10549 10552 10555 10557 10558 10560 10563 10566 10569 10572 10574 10577 10580 10582 10584 10586 10588 10590 10591 10592 10593 10594 10595 10595 10595 10596 10596 10597 10597 10596 10597 10597 10597 10597 10597 10597 10597 10598 10598 10599 10599 10598 10596 10595 10593 10592 10590 10588
10376 10380 10385 10390 10395 10400 10405 10411 10416 10421 10426 10432 10438 10443 10447 10452 10457 10463 10470 10476 10480 10484 10487 10490 10494 10499 10504 10509 10514 10518 10523 10526 10528 10529 10533 10536 10538 10540 10544 10548 10550 10552 10554 10556 10559 10562 10564 10567 10570 10573 10575 10577 10579 10581 10583 10584 10585 10587 10588 10589 10590 10590 10591 10592 10592 10592 10592 10592 10592 10592 10592 10592 10592 10592 10591 10592 10593 10594 10594 10593 10591 10590 10589 10587 10585 10582
10376 10380 10384 10389 10394 10399 10404 10408 10412 10418 10423 10429 10434 10439 10444 10450 10456 10463 10467 10470 10474 10479 10483 10486 10490 10495 10500 10505 10510 10514 10517 10521 10525 10527 10529 10529 10531 10535 10539 10543 10545 10547 10549 10552 10555 10557 10560 10563 10566 10568 10570 10572 10574 10575 10577 10579 10580 10582 10583 10584 10584 10585 10587 10587 10587 10587 10587 10588 10588 10588 10588 10588 10587 10587 10587 10587 10587 10587 10588 10587 10586 10585 10585 10582 10579 10575
10376 10379 10383 10387 10392 10398 10403 10406 10411 10416 10421 10426 10432 10437 10442 10448 10454 10458 10460 10464 10469 10473 10478 10482 10486 10491 10496 10501 10506 10509 10514 10519 10522 10522 10522 10523 10526 10530 10534 10537 10540 10542 10545 10548 10551 10553 10556 10558 10561 10563 10565 10567 10568 10570 10572 10573 10575 10576 10577 10578 10579 10581 10582 10582 10582 10582 10582 10582 10582 10583 10583 10583 10582 10582 10582 10582 10581 10581 10581 10581 10580 10580 10579 10577 10573 10570
10375 10379 10382 10386 10391 10396 10401 10406 10410 10415 10420 10425 10430 10435 10440 10446 10450 10453 10456 10461 10465 10469 10474 10479 10482 10486 10492 10497 10501 10506 10511 10514 10516 10516 10517 10519 10522 10525 10528 10533 10536 10538 10540 10544 10547 10549 10552 10553 10555 10557 10559 10561 10563 10565 10566 10568 10569 10571 10572 10573 10574 10575 10576 10576 10576 10577 10577 10577 10577 10578 10578 10578 10577 10577 10577 10576 10575 10574 10574 10574 10574 10573 10572 10571 10569 10567
10375 10379 10383 10387 10390 10394 10399 10404 10409 10413 10418 10423 10428 10432 10437 10442 10445 10449 10453 10457 10462 10466 10471 10475 10479 10483 10488 10493 10497 10502 10506 10508 10510 10511 10513 10515 10518 10521 10524 10528 10532 10534 10537 10540 10543 10545 10547 10548 10549 10551 10554 10556 10558 10559 10561 10562 10563 10564 10566 10567 10568 10568 10569 10570 10571 10571 10572 10572 10572 10573 10573 10572 10572 10572 10571 10571 10570 10569 10568 10567 10567 10566 10565 10564 10563 10561
10376 10379 10383 10387 10390 10393 10398 10402 10406 10412 10417 10421 10425 10430 10434 10438 10442 10447 10451 10455 10459 10464 10468 10472 10476 10480 10485 10489 10493 10497 10500 10502 10504 10506 10507 10510 10513 10516 10519 10524 10528 10530 10533 10536 10539 10540 10542 10543 10544 10546 10548 10550 10552 10553 10555 10556 10557 10558 10560 10561 10561 10562 10563 10564 10564 10565 10566 10566 10567 10567 10567 10567 10566 10566 10566 10565 10564 10563 10562 10561 10560 10559 10558 10557 10556 10555
10376 10379 10383 10387 10391 10394 10397 10401 10405 10411 10416 10420 10424 10428 10432 10436 10441 10445 10449 10453 10457 10461 10466 10470 10474 10477 10481 10485 10488 10491 10494 10497 10499 10500 10502 10506 10508 10511 10515 10520 10524 10526 10529 10532 10534 10535 10537 10538 10539 10540 10542 10544 10546 10548 10549 10550 10551 10553 10553 10554 10555 10556 10557 10557 10558 10558 10559 10560 10561 10561 10561 10560 10560 10560 10559 10559 10558 10557 10556 10555 10554 10553 10552 10551 10550 10548
10375 10379 10382 10386 10391 10395 10398 10402 10406 10410 10414 10418 10422 10427 10430 10434 10438 10442 10446 10450 10454 10458 10463 10467 10471 10474 10478 10481 10483 10486 10490 10493 10494 10496 10498 10501 10504 10507 10512 10517 10520 10522 10525 10527 10529 10531 10532 10533 10534 10535 10537 10539 10541 10543 10544 10545 10546 10547 10547 10548 10549 10550 10551 10551 10552 10553 10553 10554 10555 10555 10554 10554 10554 10554 10553 10553 10552 10551 10550 10549 10548 10547 10546 10545 10543 10541
10374 10377 10381 10385 10388 10393 10398 10402 10405 10407 10409 10413 10418 10423 10427 10431 10435 10439 10443 10446 10450 10454 10459 10463 10467 10471 10474 10476 10479 10482 10485 10488 10490 10492 10495 10498 10501 10504 10508 10512 10516 10518 10520 10522 10524 10525 10526 10527 10529 10530 10532 10534 10536 10538 10539 10539 10539 10540 10541 10542 10543 10544 10545 10546 10546 10547 10547 10548 10548 10548 10548 10548 10548 10548 10548 10547 10546 10545 10544 10543 10542 10541 10540 10538 10536 10534
10372 10375 10379 10382 10386 10390 10395 10400 10404 10406 10408 10411 10416 10420 10423 10427 10431 10436 10440 10444 10447 10451 10454 10459 10463 10466 10470 10472 10475 10477 10480 10484 10487 10489 10492 10495 10498 10501 10504 10508 10511 10513 10515 10517 10519 10520 10521 10522 10524 10525 10526 10529 10531 10532 10532 10532 10533 10534 10535 10536 10537 10538 10538 10539 10540 10541 10541 10542 10542 10542 10542 10542 10542 10542 10542 10541 10540 10539 10537 10536 10535 10534 10533 10531 10529 10527
10370 10373 10376 10379 10383 10387 10392 10396 10401 10404 10407 10411 10414 10417 10420 10424 10428 10433 10438 10441 10443 10446 10450 10454 10458 10462 10465 10468 10471 10473 10476 10479 10483 10487 10490 10492 10495 10497 10500 10503 10506 10508 10510 10511 10513 10514 10515 10516 10518 10519 10520 10523 10524 10526 10526 10526 10526 10527 10528 10530 10530 10531 10532 10533 10534 10534 10535 10535 10536 10536 10536 10536 10535 10535 10535 10534 10533 10532 10530 10529 10528 10527 10526 10524 10522 10520
10367 10370 10373 10377 10380 10384 10388 10392 10396 10399 10403 10407 10410 10413 10416 10420 10424 10428 10432 10435 10438 10441 10445 10449 10453 10456 10460 10463 10467 10470 10472 10475 10479 10483 10486 10489 10491 10493 10496 10498 10500 10502 10504 10505 10506 10507 10509 10510 10512 10513 10515 10517 10518 10519 10519 10520 10520 10521 10522 10523 10524 10525 10526 10526 10527 10527 10528 10528 10529 10529 10530 10529 10529 10528 10528 10528 10527 10525 10524 10522 10520 10519 10518 10516 10515 10513